Temperature
12 13 13 14 17 18 19 19 19 18 18 18 18 19 21 22 22 21 16 16 16 16 16 16 16 16 16 17 17 16 16 17 17 17 17 17 17 17 17 16 16 16 16 16 16 16 16 16 16
12 13 13 15 17 19 19 19 18 18 18 16 17 18 19 20 18 17 16 16 16 16 16 16 16 16 16 16 16 16 16 16 16 16 17 17 17 16 16 16 16 16 16 16 16 16 16 16 16
12 12 14 16 17 19 20 18 18 17 16 16 17 18 18 18 16 15 15 16 16 16 16 16 16 16 16 16 16 16 16 16 16 16 16 16 16 16 16 16 16 16 16 16 16 16 16 16 16
11 12 14 16 17 18 17 17 16 17 16 16 17 18 16 15 15 15 15 16 16 16 16 16 16 16 16 16 16 16 16 16 16 16 16 16 16 16 16 16 16 16 16 16 16 16 16 16 16
11 14 15 15 16 16 16 15 15 16 17 16 16 17 17 14 14 15 15 16 16 15 15 16 16 16 16 16 16 16 16 16 16 16 16 16 16 16 16 16 16 15 15 15 16 16 16 16 15
12 14 15 16 16 15 15 14 14 16 16 15 15 16 16 14 14 15 15 15 15 15 15 15 16 16 16 16 16 16 16 16 16 16 16 16 16 16 16 16 16 15 15 15 15 16 16 15 15
13 14 15 16 15 15 14 13 14 15 16 15 14 16 16 14 14 14 15 15 15 15 15 15 15 15 15 15 15 15 15 15 15 16 16 16 15 15 15 15 15 15 15 15 15 15 15 15 15
11 14 14 14 14 14 13 13 13 13 14 13 13 15 15 13 13 14 14 14 15 15 15 15 15 15 15 15 15 15 15 15 15 15 15 15 15 15 15 15 15 15 15 15 15 15 15 15 15
10 13 13 13 13 13 12 12 12 11 12 12 12 13 13 13 13 13 13 14 14 14 15 15 15 15 15 15 15 15 15 15 15 15 15 15 15 15 15 15 15 15 15 15 15 15 15 15 15
11 12 13 12 12 13 12 12 12 12 13 13 12 12 12 12 12 12 13 13 14 14 14 15 15 15 15 15 15 15 15 15 15 15 15 15 15 15 14 15 15 15 15 15 15 15 15 15 14
11 12 11 11 10 10 11 11 11 11 13 13 13 12 11 11 11 12 12 12 13 13 14 14 14 15 15 15 15 15 15 15 15 15 14 15 15 15 15 15 15 15 15 15 15 15 15 14 14
10 10 10 10 9 9 10 10 11 11 12 11 11 10 10 11 11 11 12 12 12 13 13 14 14 14 14 15 15 15 15 15 15 15 14 14 15 15 15 15 14 14 14 14 14 14 14 14 14
10 9 9 9 8 9 9 10 10 10 10 10 10 10 10 10 10 11 11 12 12 13 13 13 14 14 14 14 14 14 15 14 15 15 14 14 15 15 14 14 14 14 14 14 14 14 14 14 14
9 9 9 9 9 9 9 10 10 10 10 10 10 10 10 10 10 10 11 11 12 12 13 13 13 14 14 14 14 14 14 14 14 15 15 14 14 14 14 14 14 14 14 14 14 14 14 14 14
8 9 9 9 9 9 9 10 11 10 10 10 10 10 10 10 9 10 10 11 11 12 12 13 13 13 13 14 14 14 14 14 14 14 14 14 14 14 14 14 14 14 14 14 14 14 14 14 14
8 9 10 10 9 9 9 11 12 10 10 10 10 10 9 9 9 9 10 10 11 12 12 12 13 13 13 13 13 14 14 14 14 14 14 14 14 14 14 14 14 14 14 14 14 14 14 14 14
9 10 10 10 10 9 9 10 11 10 9 10 10 9 9 9 9 9 9 10 11 11 12 12 12 12 13 13 13 13 13 13 13 14 14 14 14 14 14 14 14 14 14 14 14 13 13 13 13
9 9 9 10 10 9 9 10 11 10 9 10 10 9 9 9 9 9 9 10 10 10 11 11 12 12 12 12 12 12 13 13 13 13 13 13 13 13 13 13 13 13 13 13 13 13 13 13 13
8 8 8 9 9 9 9 10 10 10 10 10 9 9 9 9 8 8 9 9 10 10 10 10 11 11 11 11 12 12 12 12 13 13 13 13 13 13 13 13 13 13 13 13 13 13 13 13 13
8 7 8 9 9 9 9 10 10 10 10 9 9 9 8 8 8 8 8 8 9 9 10 10 10 10 11 11 11 12 12 12 12 12 12 13 13 13 12 13 13 13 13 12 12 12 12 12 12
8 8 8 8 9 9 9 10 10 10 10 9 9 8 8 8 8 8 8 8 8 9 9 9 10 10 10 11 11 11 11 11 11 12 12 12 12 12 12 12 12 12 12 12 12 12 12 12 12
8 8 8 8 8 9 9 9 10 10 10 10 9 8 8 7 7 7 7 7 8 8 9 9 9 10 10 10 10 10 11 11 11 11 12 12 12 12 12 12 12 12 12 12 12 12 12 12 11
8 8 8 7 7 8 9 8 10 9 9 9 8 7 7 7 6 6 6 7 7 8 8 9 9 9 10 10 10 10 10 10 11 11 11 11 11 11 11 11 11 11 12 11 11 11 11 11 11
8 8 8 8 8 8 8 8 9 9 8 8 8 7 6 6 6 6 6 6 7 7 8 8 9 9 9 9 10 10 10 10 10 10 10 10 10 10 11 11 11 11 11 11 11 11 11 11 11
8 8 9 9 9 9 8 8 8 8 8 7 7 6 5 5 5 5 5 6 6 7 7 7 8 8 9 9 9 9 9 9 9 10 10 10 10 10 10 10 10 11 11 11 11 10 10 10 10
8 8 8 9 10 10 8 8 9 8 7 7 6 5 5 5 5 5 5 5 5 6 7 7 7 7 8 8 8 9 9 9 9 9 9 9 9 9 10 10 10 10 10 10 10 10 10 10 10
8 8 8 8 8 9 9 9 9 8 8 7 6 6 5 4 4 4 4 5 5 5 6 6 7 7 7 7 8 8 8 8 8 9 9 9 9 9 9 9 9 9 9 9 10 10 10 10 10
8 8 8 8 9 10 10 9 9 8 7 7 7 5 5 4 4 4 4 4 5 5 6 6 6 7 7 7 7 7 8 8 8 8 8 8 8 8 8 9 9 9 9 9 9 9 9 9 9
8 8 8 8 8 10 10 10 8 8 7 7 6 5 4 4 3 3 4 4 4 5 5 6 6 6 6 7 7 7 7 8 7 7 8 8 8 8 8 8 8 8 8 8 8 8 8 8 8
8 8 8 9 9 9 10 10 8 8 7 7 6 5 4 4 3 3 4 4 4 5 5 5 6 6 6 6 6 7 7 7 7 7 7 7 7 7 8 8 8 8 7 7 7 7 7 7 7
Wind_Speed
2 2 2 5 5 6 9 7 6 5 5 4 3 4 5 6 3 1 5 7 6 2 7 12 14 15 16 16 15 15 16 16 17 17 17 16 16 15 14 14 14 14 13 13 13 13 13 13 13
1 1 4 5 7 9 8 7 10 7 3 2 4 6 6 5 2 3 5 8 6 1 5 10 13 15 15 15 15 15 16 16 17 17 17 16 16 15 15 14 14 14 13 13 13 14 14 13 13
2 1 5 5 7 9 5 5 7 6 2 2 3 4 4 2 2 4 7 8 5 0 4 7 11 13 15 15 15 15 16 16 16 17 16 16 16 15 15 15 14 14 13 14 14 13 13 13 12
4 4 4 7 11 7 2 3 3 5 4 3 3 3 2 1 3 5 8 6 3 0 2 6 9 11 13 14 15 16 16 16 16 16 16 16 16 15 15 14 14 14 14 14 14 13 12 12 11
3 5 7 8 11 6 5 2 1 4 4 3 4 4 3 1 4 6 8 6 4 1 2 4 7 8 11 13 15 16 16 16 16 17 16 16 16 16 15 15 15 15 14 14 13 13 12 11 11
5 5 7 11 10 5 5 5 4 6 5 3 4 6 4 1 4 7 8 6 5 2 2 3 5 6 8 11 14 15 16 16 17 17 17 16 16 15 15 15 16 16 15 14 13 12 12 11 10
6 6 7 8 7 6 4 4 6 7 7 5 3 5 4 1 5 7 7 6 5 3 2 3 5 7 8 10 12 14 15 16 17 17 17 16 16 15 15 16 16 16 15 15 14 12 12 11 10
3 4 5 6 6 5 3 3 2 5 6 4 4 6 4 3 7 8 7 6 5 4 3 3 4 6 7 9 12 12 14 15 16 17 16 16 15 15 16 16 16 16 16 15 14 13 12 10 9
3 6 7 6 5 4 3 3 2 3 6 6 6 7 7 9 10 10 9 8 6 5 4 4 4 5 7 8 9 12 13 15 16 16 16 16 14 15 15 16 16 16 16 15 14 13 11 11 9
6 7 6 3 3 3 3 4 4 4 8 9 9 9 9 10 10 10 10 10 9 8 7 5 5 5 6 6 7 9 11 13 15 15 16 15 13 12 12 14 16 16 16 15 14 12 12 10 9
6 6 3 4 3 3 4 5 5 7 9 9 10 10 11 12 12 11 11 11 11 10 9 8 7 6 6 5 6 6 8 9 13 14 15 13 12 11 11 11 13 14 15 14 13 13 11 10 8
4 4 4 3 3 4 6 6 7 11 12 10 11 13 14 14 14 13 13 12 12 11 11 9 8 7 7 7 6 7 7 7 9 12 14 12 9 9 9 9 11 12 12 11 12 10 10 10 9
5 3 4 5 7 8 10 12 12 14 14 14 14 14 15 15 15 14 13 13 13 12 12 11 9 9 8 7 7 7 8 8 9 10 13 13 9 10 9 9 10 11 11 11 10 9 9 9 9
3 4 5 7 8 7 10 13 11 12 10 11 12 14 14 15 15 15 14 14 14 13 12 11 10 10 9 8 8 8 8 9 9 10 13 14 12 10 10 10 10 10 11 11 10 10 8 7 7
2 3 5 5 6 4 6 11 10 10 10 12 13 13 13 13 13 14 14 14 14 13 12 11 11 10 11 10 10 8 8 9 9 10 12 14 13 12 10 10 9 10 11 11 9 9 8 6 6
2 3 3 2 3 4 6 9 5 5 9 11 11 11 11 11 11 11 12 13 12 12 11 11 10 10 11 10 9 8 8 9 9 10 11 13 14 14 11 10 9 10 10 9 8 8 8 7 7
3 3 4 3 3 4 6 10 8 8 9 11 11 10 10 10 11 10 11 11 11 11 11 11 10 10 10 10 8 8 8 8 9 9 10 12 14 14 11 9 9 10 8 8 8 8 8 8 7
3 3 4 5 2 5 9 12 12 9 9 10 10 10 10 10 11 11 11 10 10 10 10 10 10 9 9 8 7 7 8 8 8 9 10 12 12 14 11 9 10 9 8 8 8 9 8 7 6
3 4 7 7 5 7 10 13 12 9 7 8 9 10 10 11 11 10 9 9 8 8 9 9 9 9 8 7 7 8 8 8 8 9 11 12 12 13 11 9 9 9 9 9 10 8 8 7 5
4 5 6 6 5 6 9 12 8 6 6 7 8 9 10 10 11 10 9 7 7 7 8 8 8 8 8 7 7 6 7 6 7 7 8 11 11 11 10 10 9 9 8 9 10 9 7 6 6
5 6 5 6 8 5 7 6 4 3 4 6 7 8 9 10 10 10 9 8 7 6 7 6 7 8 8 8 6 6 5 5 5 7 7 7 8 9 9 10 10 9 9 9 10 10 10 7 7
3 4 6 7 6 3 3 3 2 5 5 8 9 10 10 10 9 9 9 9 7 6 6 5 5 5 6 7 7 8 7 6 6 6 5 6 6 7 8 8 9 9 8 9 9 9 8 8 7
3 4 5 5 4 3 2 3 3 5 6 10 11 11 10 10 9 9 9 9 8 6 4 3 2 3 4 5 6 6 6 5 4 4 5 5 5 5 6 6 7 7 7 8 8 8 9 8 8
4 3 3 3 2 2 1 2 3 4 7 10 10 10 10 10 10 10 9 8 7 5 3 1 1 2 3 3 4 4 5 5 4 4 4 4 3 3 4 5 6 6 6 7 7 8 10 9 9
2 2 1 2 2 1 1 2 3 4 7 7 9 10 11 10 10 10 10 9 8 7 5 3 2 2 2 3 3 2 3 4 4 3 3 3 3 3 4 4 5 5 5 6 6 7 8 9 9
1 2 2 2 2 1 1 2 2 3 5 6 7 8 10 11 10 10 10 9 8 8 6 4 3 3 2 3 3 2 2 2 2 2 2 3 3 3 3 3 3 4 4 5 6 6 7 7 9
1 1 1 2 2 2 1 2 2 2 5 7 8 9 10 10 10 10 10 9 9 8 7 5 4 4 3 3 3 2 2 2 2 2 2 2 2 2 2 3 3 4 4 5 5 5 6 7 8
1 1 1 2 2 2 1 1 2 4 5 6 7 8 9 9 9 10 9 9 9 8 7 6 5 4 4 3 3 2 2 2 2 2 2 2 2 2 2 3 3 3 3 4 4 4 5 6 6
0 1 2 2 2 2 1 0 0 2 4 4 5 6 7 8 8 8 8 8 8 8 7 7 6 5 5 4 3 3 2 2 2 1 1 1 1 2 2 3 3 3 3 4 4 4 4 5 5
2 2 2 2 1 2 2 1 1 2 2 3 4 5 5 6 6 6 7 7 7 8 7 7 6 5 5 4 4 3 3 2 2 1 0 0 1 1 2 3 3 3 3 4 4 4 5 5 5
Wind_Direction
339 307 199 181 189 217 230 215 208 190 197 208 221 231 235 229 232 54 25 6 345 290 181 169 169 168 167 165 164 163 161 161 161 160 160 160 161 161 159 157 153 150 147 143 140 136 130 125 120
338 190 179 191 215 221 223 211 207 196 162 210 223 232 233 231 318 358 4 352 336 295 179 174 166 171 170 169 167 167 167 166 166 164 164 165 165 165 164 161 157 155 150 144 140 136 131 127 125
145 177 185 193 218 228 218 189 208 196 201 221 207 225 242 251 351 356 355 340 331 299 179 166 165 174 175 172 173 172 172 172 171 169 169 168 169 169 168 165 161 157 151 146 141 137 135 132 131
172 162 190 219 223 226 226 139 157 192 196 212 233 217 204 7 351 349 344 343 339 306 187 161 166 179 180 178 177 179 179 179 176 174 173 173 173 173 172 168 163 156 151 149 145 142 141 140 137
175 181 198 221 228 218 215 198 204 207 197 203 240 242 219 109 4 352 350 353 346 323 218 173 169 179 186 186 184 184 185 184 182 179 178 178 177 177 173 168 162 157 155 152 151 150 148 147 144
169 191 212 224 219 213 219 227 238 236 231 240 253 250 242 158 353 349 348 347 342 321 256 194 176 183 189 192 192 193 192 191 187 184 183 182 180 178 174 168 165 163 160 158 158 158 157 156 152
193 198 223 229 222 218 211 219 235 244 242 245 263 250 229 229 342 336 337 335 332 322 284 234 205 199 196 197 198 200 199 196 193 190 187 185 182 178 174 171 171 168 166 163 163 164 164 162 159
202 200 213 217 219 213 181 199 241 256 259 271 256 248 239 330 334 326 323 321 315 307 286 269 239 219 212 207 203 203 204 201 198 194 190 185 182 180 176 177 175 174 171 169 167 169 169 167 165
190 213 220 210 208 194 177 210 235 267 258 254 248 261 290 316 319 319 317 312 305 298 285 274 260 241 227 221 211 207 205 204 201 200 192 188 193 191 186 187 178 178 175 172 172 173 171 169 167
196 220 224 194 198 193 208 249 276 256 252 253 253 263 283 296 301 304 305 302 294 289 287 273 263 252 242 230 220 216 210 205 206 206 198 199 201 198 193 180 178 179 176 174 176 175 173 183 181
199 226 202 203 218 249 259 270 269 262 258 260 273 286 294 295 291 287 287 289 285 281 278 272 261 253 244 234 226 220 213 210 210 207 202 199 198 195 191 182 181 184 182 185 181 182 188 196 193
190 213 217 217 235 253 265 271 268 254 260 283 290 291 291 288 286 281 280 282 282 276 271 268 260 252 243 236 230 225 218 213 210 206 204 200 196 195 191 189 188 189 191 192 190 195 192 199 200
205 210 234 252 263 265 266 263 268 265 269 279 282 282 281 281 279 277 277 274 274 269 266 263 258 250 241 233 230 226 222 218 212 207 206 203 199 196 193 193 192 192 192 194 195 198 196 202 205
196 229 261 271 265 261 261 265 259 264 277 282 283 282 281 279 278 277 274 270 269 265 262 258 254 248 240 233 228 228 225 219 214 209 207 205 204 199 195 194 194 195 196 197 197 200 198 204 208
206 250 259 253 250 249 266 265 245 266 283 285 285 284 283 281 278 274 274 272 269 265 262 255 251 245 239 235 232 228 225 220 214 211 208 206 206 203 198 197 196 197 196 195 197 199 200 205 210
196 220 229 224 238 233 249 266 269 296 293 289 291 291 287 288 286 281 278 274 268 263 259 254 248 241 235 233 232 228 224 219 215 212 209 209 208 205 201 201 199 196 193 193 196 198 200 204 211
197 225 251 269 233 243 244 271 293 305 296 292 294 295 294 294 294 291 286 280 273 265 258 252 245 240 234 230 226 226 224 222 217 212 210 210 208 205 202 204 201 195 193 195 197 202 204 206 210
204 237 261 271 276 265 262 272 289 298 294 294 298 300 298 297 297 298 294 288 275 264 257 250 243 237 232 226 223 223 222 221 218 214 212 209 208 205 203 205 202 196 194 193 197 203 206 209 206
231 256 271 278 289 283 272 280 289 297 298 305 307 307 305 302 303 302 298 293 280 267 254 247 240 233 222 215 213 215 218 215 215 215 214 209 208 206 204 204 201 196 197 198 197 199 204 207 197
239 259 272 285 291 279 283 284 283 292 302 310 314 316 314 313 313 312 307 301 285 269 258 247 238 232 221 218 214 216 217 217 216 213 214 209 206 204 204 202 201 199 198 200 200 198 202 203 195
251 249 268 290 308 273 288 275 260 315 319 328 329 324 322 318 316 316 313 308 295 277 262 251 243 234 223 216 209 206 204 210 214 207 209 207 201 201 203 203 202 201 200 201 202 200 203 204 202
267 253 264 278 288 290 300 286 302 335 338 347 344 342 337 333 327 325 323 322 311 293 276 258 242 229 222 210 206 204 204 208 215 209 202 197 197 201 204 205 203 202 202 203 205 204 208 208 206
257 280 268 267 264 275 265 272 305 344 342 348 349 346 344 341 339 337 334 330 325 314 298 272 231 211 206 201 199 198 199 200 203 201 196 199 200 204 206 206 206 203 203 206 206 207 211 214 214
257 266 240 226 241 254 279 261 315 347 337 337 345 348 348 351 352 353 351 349 348 349 349 352 157 171 178 175 175 184 189 185 193 197 195 198 198 199 209 208 206 207 207 209 211 214 216 218 221
257 285 241 214 227 272 60 256 294 326 338 340 346 351 355 0 1 2 2 3 5 7 18 51 88 112 141 138 135 153 173 172 184 194 197 197 205 205 211 214 214 213 216 216 217 221 223 225 226
274 299 319 312 315 334 222 270 305 326 341 353 358 358 0 4 3 4 6 7 10 14 24 44 66 81 92 103 108 119 133 148 165 184 193 199 207 216 217 220 225 223 221 222 220 221 225 228 230
244 253 323 289 293 279 279 279 280 331 347 358 0 5 4 3 2 3 8 13 15 18 25 36 59 69 82 95 105 113 125 139 145 164 183 200 219 218 212 217 225 224 221 222 224 225 228 231 234
281 266 229 255 293 293 283 286 313 318 339 353 359 1 0 3 5 5 10 15 16 19 23 35 48 53 60 77 87 100 118 128 141 154 162 179 210 217 211 213 222 230 237 231 224 231 235 236 238
211 216 256 257 284 294 303 34 268 287 325 343 351 353 355 1 4 5 8 12 17 22 28 38 44 51 52 58 68 80 96 121 134 136 151 183 217 230 224 225 223 226 236 239 230 230 236 242 249
249 271 261 276 267 265 277 271 122 260 295 334 343 348 355 3 7 7 10 15 21 24 29 36 40 43 45 51 58 63 61 76 87 91 91 352 303 283 245 231 229 234 240 239 237 237 239 243 250
Height
1510 1512 1515 1519 1519 1515 1506 1504 1506 1509 1510 1511 1512 1512 1509 1508 1509 1514 1515 1511 1509 1509 1511 1511 1513 1516 1518 1520 1522 1524 1526 1528 1529 1531 1532 1533 1534 1535 1536 1537 1538 1539 1539 1540 1541 1541 1541 1542 1542
1510 1513 1517 1518 1512 1507 1502 1502 1506 1506 1510 1512 1513 1512 1511 1510 1512 1513 1511 1510 1509 1510 1511 1512 1514 1516 1518 1520 1522 1524 1526 1528 1529 1531 1532 1534 1535 1536 1537 1538 1539 1539 1540 1541 1542 1542 1543 1543 1543
1510 1513 1517 1513 1507 1499 1497 1503 1505 1508 1511 1512 1512 1512 1512 1511 1512 1512 1511 1510 1510 1510 1511 1512 1514 1516 1518 1520 1522 1524 1526 1528 1529 1531 1532 1534 1535 1536 1537 1538 1539 1540 1541 1542 1543 1543 1544 1544 1545
1511 1515 1516 1511 1504 1501 1502 1506 1509 1509 1511 1512 1512 1511 1512 1512 1512 1511 1510 1509 1510 1510 1511 1512 1514 1516 1518 1519 1521 1523 1525 1527 1529 1531 1532 1533 1535 1536 1537 1538 1539 1540 1542 1543 1543 1544 1545 1545 1546
1511 1512 1510 1506 1502 1503 1507 1509 1511 1509 1509 1511 1512 1510 1510 1511 1510 1510 1509 1509 1510 1510 1511 1513 1514 1515 1517 1519 1521 1523 1525 1527 1528 1530 1531 1533 1534 1536 1537 1538 1539 1541 1542 1543 1544 1545 1546 1546 1546
1511 1509 1505 1499 1499 1505 1508 1510 1511 1509 1509 1511 1512 1510 1510 1510 1509 1509 1509 1509 1509 1510 1511 1512 1513 1515 1517 1518 1520 1522 1524 1526 1528 1529 1531 1532 1534 1535 1536 1538 1539 1540 1542 1543 1544 1545 1546 1546 1547
1509 1506 1499 1497 1500 1504 1508 1510 1510 1509 1509 1510 1511 1510 1508 1509 1508 1508 1507 1508 1508 1509 1510 1511 1512 1514 1515 1517 1519 1521 1523 1525 1527 1528 1530 1532 1533 1535 1536 1537 1539 1540 1541 1543 1544 1545 1546 1547 1547
1507 1506 1502 1502 1502 1503 1508 1510 1510 1510 1509 1510 1511 1509 1507 1508 1507 1506 1506 1506 1507 1507 1508 1509 1511 1512 1514 1515 1517 1519 1521 1523 1525 1527 1529 1531 1532 1534 1535 1536 1538 1539 1541 1542 1543 1545 1546 1547 1547
1508 1507 1500 1501 1503 1504 1509 1509 1510 1510 1510 1509 1509 1508 1508 1506 1505 1505 1505 1505 1505 1506 1506 1507 1509 1510 1512 1513 1515 1517 1519 1521 1523 1525 1527 1529 1531 1532 1534 1535 1537 1538 1540 1541 1543 1544 1545 1546 1547
1507 1503 1500 1504 1505 1506 1508 1509 1509 1508 1507 1506 1506 1506 1505 1504 1504 1503 1502 1502 1503 1503 1504 1505 1506 1507 1509 1511 1512 1514 1516 1518 1520 1523 1525 1527 1529 1531 1532 1533 1535 1537 1539 1540 1542 1543 1544 1545 1546
1505 1502 1505 1507 1508 1508 1508 1508 1509 1507 1503 1503 1503 1503 1503 1502 1501 1500 1500 1500 1500 1500 1501 1502 1503 1504 1506 1507 1509 1511 1513 1515 1517 1520 1522 1524 1526 1528 1530 1531 1533 1535 1537 1539 1540 1542 1543 1544 1545
1506 1506 1507 1507 1508 1508 1508 1507 1506 1505 1502 1502 1502 1501 1499 1498 1497 1496 1496 1496 1496 1496 1497 1498 1499 1501 1502 1504 1506 1508 1510 1512 1514 1516 1518 1521 1523 1525 1527 1529 1531 1533 1534 1536 1538 1540 1541 1543 1544
1505 1506 1507 1508 1508 1507 1507 1505 1504 1500 1500 1499 1498 1497 1495 1494 1493 1492 1491 1491 1491 1491 1493 1494 1495 1497 1498 1500 1502 1504 1506 1508 1510 1512 1514 1517 1519 1521 1523 1525 1528 1530 1532 1534 1536 1537 1539 1541 1542
1505 1506 1506 1506 1505 1505 1504 1501 1501 1496 1497 1496 1494 1493 1491 1490 1488 1487 1486 1486 1486 1486 1487 1489 1490 1492 1494 1495 1497 1499 1502 1504 1506 1508 1510 1513 1516 1518 1520 1522 1524 1526 1529 1531 1533 1535 1536 1538 1540
1505 1505 1503 1503 1503 1503 1503 1496 1495 1494 1494 1492 1490 1489 1487 1485 1483 1482 1481 1480 1480 1481 1482 1483 1485 1487 1489 1490 1493 1495 1497 1499 1501 1504 1506 1509 1512 1514 1516 1518 1521 1523 1525 1527 1530 1532 1533 1535 1536
1504 1502 1498 1499 1501 1501 1503 1490 1490 1491 1491 1488 1487 1484 1482 1480 1479 1477 1476 1475 1475 1475 1476 1478 1480 1481 1483 1485 1488 1490 1492 1494 1497 1499 1502 1505 1507 1510 1512 1514 1517 1519 1522 1524 1526 1528 1530 1532 1533
1499 1496 1495 1497 1498 1498 1498 1489 1488 1489 1488 1485 1483 1481 1479 1476 1475 1473 1471 1470 1469 1470 1471 1473 1474 1476 1478 1480 1482 1484 1486 1489 1491 1494 1497 1500 1503 1505 1508 1510 1513 1515 1517 1520 1522 1524 1526 1528 1530
1496 1495 1495 1494 1495 1496 1493 1487 1485 1486 1485 1482 1480 1478 1475 1473 1471 1469 1467 1465 1464 1465 1466 1467 1469 1471 1472 1475 1477 1479 1481 1483 1486 1489 1492 1495 1498 1501 1503 1506 1508 1511 1513 1515 1518 1520 1522 1524 1526
1498 1498 1496 1494 1495 1494 1489 1485 1482 1481 1480 1478 1477 1474 1472 1469 1467 1465 1463 1461 1460 1460 1460 1461 1463 1465 1467 1469 1471 1473 1476 1478 1481 1484 1487 1490 1493 1496 1499 1501 1504 1506 1508 1511 1513 1516 1518 1520 1522
1499 1498 1495 1492 1493 1491 1486 1481 1478 1478 1477 1476 1474 1472 1469 1466 1463 1461 1459 1457 1455 1455 1455 1456 1458 1460 1462 1464 1466 1469 1471 1474 1477 1479 1482 1485 1488 1491 1494 1496 1498 1501 1504 1506 1509 1511 1513 1515 1517
1497 1495 1493 1493 1491 1488 1486 1476 1474 1474 1475 1474 1472 1470 1467 1464 1461 1458 1456 1453 1451 1450 1450 1451 1453 1455 1457 1460 1462 1465 1467 1469 1472 1474 1477 1480 1482 1486 1489 1491 1494 1497 1499 1501 1504 1506 1508 1510 1512
1493 1493 1493 1493 1491 1485 1486 1477 1471 1472 1472 1471 1470 1467 1465 1462 1460 1456 1453 1450 1447 1446 1446 1446 1448 1451 1453 1456 1458 1460 1462 1465 1467 1470 1473 1475 1478 1480 1484 1486 1489 1491 1494 1496 1499 1500 1503 1505 1506
1493 1493 1493 1492 1491 1487 1483 1483 1472 1472 1471 1470 1469 1467 1465 1462 1458 1455 1451 1448 1445 1443 1442 1443 1445 1447 1450 1453 1455 1457 1459 1462 1464 1467 1469 1471 1473 1476 1479 1482 1484 1486 1489 1491 1493 1495 1497 1499 1501
1494 1493 1491 1490 1488 1483 1481 1482 1474 1474 1475 1473 1471 1468 1465 1461 1458 1454 1450 1447 1444 1441 1440 1440 1442 1444 1447 1450 1452 1454 1456 1458 1461 1463 1465 1467 1469 1472 1474 1477 1480 1481 1483 1486 1488 1490 1492 1494 1495
1493 1490 1484 1481 1478 1476 1482 1482 1478 1477 1476 1475 1472 1469 1465 1461 1457 1454 1450 1447 1444 1441 1439 1439 1440 1442 1445 1447 1449 1451 1453 1455 1457 1460 1462 1463 1465 1467 1469 1472 1474 1476 1478 1481 1483 1485 1486 1488 1489
1491 1492 1488 1480 1474 1473 1481 1478 1477 1478 1477 1475 1473 1470 1466 1462 1458 1455 1451 1448 1445 1442 1440 1440 1441 1442 1444 1446 1448 1450 1451 1453 1455 1457 1459 1460 1462 1464 1466 1468 1470 1472 1473 1475 1477 1479 1480 1482 1483
1491 1490 1492 1490 1485 1480 1474 1478 1476 1478 1476 1475 1473 1470 1467 1464 1460 1456 1453 1449 1446 1444 1443 1442 1442 1443 1444 1445 1447 1448 1450 1451 1452 1454 1456 1457 1459 1461 1462 1464 1466 1468 1469 1471 1472 1473 1474 1476 1476
1493 1491 1491 1488 1480 1472 1471 1473 1474 1476 1475 1474 1473 1471 1468 1465 1462 1458 1454 1451 1448 1446 1444 1443 1443 1443 1444 1445 1446 1447 1448 1450 1451 1452 1453 1454 1456 1457 1459 1460 1462 1463 1465 1466 1467 1467 1468 1469 1470
1493 1492 1489 1486 1484 1476 1469 1472 1476 1476 1476 1475 1474 1473 1470 1467 1464 1460 1457 1453 1451 1448 1446 1445 1444 1444 1445 1445 1446 1447 1448 1449 1450 1451 1451 1452 1453 1454 1455 1457 1458 1459 1460 1460 1461 1461 1462 1463 1463
1492 1490 1488 1484 1482 1480 1474 1476 1476 1477 1476 1476 1475 1473 1471 1469 1466 1463 1459 1456 1453 1451 1449 1447 1447 1446 1446 1446 1446 1447 1447 1448 1448 1449 1449 1450 1450 1451 1452 1453 1454 1454 1455 1455 1456 1456 1456 1456 1457